Weather History for Miami, FL

Change the Weather History Date:

Monday, December 9, 2013

  Actual Average Record
Temperature  
Mean Temperature 79 °F 72 °F  
Max Temperature 83 °F 79 °F 87 °F (2009)
Min Temperature 75 °F 64 °F 43 °F (1930)
Degree Days  
Heating Degree Days 0 1  
Month to date heating degree days 0 5  
Since 1 July heating degree days 2 8  
Cooling Degree Days 14 7  
Month to date cooling degree days 92 68  
Year to date cooling degree days 4633 4440  
Growing Degree Days 28 (Base 50)    
Moisture  
Dew Point 67 °F    
Average Humidity 69    
Maximum Humidity 82    
Minimum Humidity 55    
Precipitation  
Precipitation T in 0.07 in 2.21 in (1987)
Month to date precipitation 0.40 0.63  
Year to date precipitation 66.15 60.49  
Snow  
Snow 0.00 in - - ()
Month to date snowfall 0.0  
Since 1 July snowfall 0.0  
Snow Depth 0.00 in    
Sea Level Pressure  
Sea Level Pressure 30.16 in    
Wind  
Wind Speed 11 mph (ESE)    
Max Wind Speed 21 mph    
Max Gust Speed 25 mph    
Visibility 10 miles    
Events      
T = Trace of Precipitation, MM = Missing Value Source: NWS Daily Summary

Daily Weather History Graph

Daily Weather History Graph

Search for Another Location

Airport:

Trip Planner

Search our weather history database for the weather conditions in past years. The results will help you decide how hot, cold, wet, or windy it might be!

Date:

Astronomy

Dec. 09, 2013 Rise Set
Actual Time 6:56 AM EST 5:30 PM EST
Civil Twilight 6:31 AM EST 5:56 PM EST
Nautical Twilight 6:02 AM EST 6:24 PM EST
Astronomical Twilight 5:34 AM EST 6:52 PM EST
Moon 12:22 PM EST (12/9) No Moon Set
Length of Visible Light 11h 24m
Length of Day
10h 34m
Waxing Crescent, 51% of the Moon is Illuminated
Dec 9
Waxing Crescent
Dec 17
Full
Dec 25
Last Quarter
Jan 1
New
Jan 7
First Quarter

Hourly Weather History & Observations

Time (EST) Temp. Heat Index Dew Point Humidity Pressure Visibility Wind Dir Wind Speed Gust Speed Precip Events Conditions
12:53 AM 78.1 °F - 70.0 °F 76% 30.15 in 10.0 mi ESE 11.5 mph - 0.00 in   Overcast
1:53 AM 77.0 °F - 69.1 °F 76% 30.14 in 10.0 mi ESE 11.5 mph - N/A   Scattered Clouds
2:53 AM 75.9 °F - 69.1 °F 79% 30.15 in 10.0 mi ESE 8.1 mph - N/A   Overcast
3:53 AM 75.9 °F - 69.1 °F 79% 30.15 in 10.0 mi ESE 5.8 mph - N/A   Overcast
4:53 AM 75.9 °F - 68.0 °F 76% 30.15 in 10.0 mi ESE 9.2 mph - N/A   Mostly Cloudy
5:53 AM 75.9 °F - 69.1 °F 79% 30.16 in 10.0 mi ESE 6.9 mph - N/A   Mostly Cloudy
6:53 AM 75.9 °F - 68.0 °F 76% 30.18 in 10.0 mi SE 6.9 mph - N/A   Mostly Cloudy
7:53 AM 77.0 °F - 68.0 °F 74% 30.19 in 10.0 mi ESE 8.1 mph - N/A   Scattered Clouds
8:53 AM 80.1 °F 82.3 °F 66.9 °F 64% 30.20 in 10.0 mi ESE 12.7 mph - N/A   Scattered Clouds
9:53 AM 81.0 °F 83.0 °F 66.0 °F 60% 30.21 in 10.0 mi ESE 16.1 mph 23.0 mph N/A   Scattered Clouds
10:53 AM 82.0 °F 84.1 °F 66.0 °F 58% 30.20 in 10.0 mi ESE 18.4 mph - N/A   Partly Cloudy
11:53 AM 82.9 °F 85.0 °F 66.0 °F 56% 30.18 in 10.0 mi East 15.0 mph - N/A   Scattered Clouds
12:53 PM 82.0 °F 84.1 °F 66.0 °F 58% 30.15 in 10.0 mi East 18.4 mph - N/A   Scattered Clouds
1:53 PM 82.0 °F 84.5 °F 66.9 °F 60% 30.13 in 10.0 mi SE 13.8 mph 21.9 mph N/A   Scattered Clouds
2:53 PM 82.0 °F 83.8 °F 64.9 °F 56% 30.12 in 10.0 mi East 11.5 mph - N/A   Scattered Clouds
3:53 PM 80.1 °F 82.1 °F 66.0 °F 62% 30.12 in 10.0 mi ESE 11.5 mph - N/A   Scattered Clouds
4:53 PM 79.0 °F - 64.9 °F 62% 30.12 in 10.0 mi ESE 11.5 mph - N/A   Scattered Clouds
5:53 PM 78.1 °F - 66.0 °F 66% 30.13 in 10.0 mi ESE 6.9 mph - N/A   Scattered Clouds
6:53 PM 75.9 °F - 66.0 °F 71% 30.14 in 10.0 mi East 6.9 mph - N/A   Partly Cloudy
7:53 PM 77.0 °F - 66.9 °F 71% 30.15 in 10.0 mi East 8.1 mph - N/A   Scattered Clouds
8:53 PM 77.0 °F - 68.0 °F 74% 30.16 in 10.0 mi East 8.1 mph - N/A   Scattered Clouds
9:53 PM 78.1 °F - 69.1 °F 74% 30.16 in 10.0 mi East 9.2 mph - N/A   Mostly Cloudy
10:53 PM 77.0 °F - 69.1 °F 76% 30.15 in 10.0 mi ESE 11.5 mph - N/A   Mostly Cloudy
11:53 PM 77.0 °F - 70.0 °F 79% 30.14 in 10.0 mi ESE 8.1 mph - N/A   Mostly Cloudy